Hauptseite
METAR-TAF:

METAR-TAF

Flughäfen :

Militärflugplatz Dübendorf

Dübendorf, Schweiz

Breite: 47-23-55N, Länge: 8-38-53E, Höhe: 448 m

Beobachtung

Neuester Wetterbericht von vor 35 Minuten, um 18:20 UTC
Wind 3 kt aus Ost/Südost
Temperatur 3°C
Luftfeuchtigkeit 93%
Luftdruck 1023 hPa
Sichtweite 10 km oder mehr
Leicht bewölkt in der Höhe von 5400 ft
Durchbrochene Bewölkung in der Höhe von 6900 ft

METAR: LSMD 181820Z AUTO 12003KT 9999NDV FEW054 BKN069 03/02 Q1023 RMK

Zeit: 19:55 (18:55 UTC)


TAF: fehlend

Wetterbeobachtungen und Prognosen von mehr als 4000 Flughäfen (METAR und TAF Bericht).

Die verfügbaren Stationen werden durch gelbe und rote Markierungen auf der Karte dargestellt.

Führen Sie die Maus auf sie, um den Namen der Station zu sehen.

Darauf klicken, um die Beobachtung von Wetterbeobachtungen und Prognosen zu sehen.

Um die Karte zu ändern : klicken Sie auf den grünen Tasten mit einem schwarzen Kreuz Zum Vergrößern, auf den grünen Button mit einem Gedankenstrich zu verkleinern, oder auf die grünen Pfeile für benachbarte Karten.


METAR-TAF: